• In Netherlands
  • List of Countries
  • For 7 days
  • Water Temperature
  • Satellite Maps
  • Weather Map
  • Weather Widgets
  • user-avatar
    Login

    Hourly Weather Varna

    Today, 22 June, Thursday

    Time Temperature Precipitation Wind Pressure Humidity
    00:00 +20°C° 0 mm 1 mps 744 mmHg 76%
    01:00 +20°C° 0 mm 1 mps 744 mmHg 76%
    02:00 +19°C° 0 mm 2 mps 744 mmHg 68%
    03:00 +19°C° 0.2 mm 2 mps 744 mmHg 69%
    04:00 +19°C° 0.2 mm 3 mps 744 mmHg 71%
    05:00 +19°C° 0.2 mm 3 mps 744 mmHg 72%
    06:00 +21°C° 0 mm 3 mps 745 mmHg 69%
    07:00 +24°C° 0 mm 3 mps 745 mmHg 66%
    08:00 +26°C° 0 mm 4 mps 745 mmHg 65%
    09:00 +27°C° 0 mm 3 mps 746 mmHg 61%
    10:00 +28°C° 0 mm 3 mps 746 mmHg 56%
    11:00 +29°C° 0 mm 3 mps 746 mmHg 51%
    12:00 +29°C° 0.3 mm 3 mps 746 mmHg 50%
    13:00 +30°C° 0.3 mm 3 mps 746 mmHg 49%
    14:00 +30°C° 0.3 mm 3 mps 746 mmHg 47%
    15:00 +29°C° 0.1 mm 3 mps 746 mmHg 49%
    16:00 +29°C° 0.1 mm 3 mps 746 mmHg 52%
    17:00 +29°C° 0.1 mm 3 mps 746 mmHg 54%
    18:00 +26°C° 0 mm 3 mps 746 mmHg 64%
    19:00 +24°C° 0 mm 2 mps 746 mmHg 73%
    20:00 +21°C° 0 mm 2 mps 746 mmHg 83%
    21:00 +21°C° 0 mm 2 mps 746 mmHg 84%
    22:00 +20°C° 0 mm 2 mps 746 mmHg 86%
    23:00 +19°C° 0 mm 2 mps 746 mmHg 87%

    Tomorrow, 23 June, Friday

    Time Temperature Precipitation Wind Pressure Humidity
    00:00 +19°C° 0.2 mm 2 mps 746 mmHg 87%
    01:00 +19°C° 0.2 mm 2 mps 746 mmHg 87%
    02:00 +19°C° 0.2 mm 2 mps 746 mmHg 87%
    03:00 +19°C° 0.2 mm 2 mps 746 mmHg 86%
    04:00 +19°C° 0.2 mm 2 mps 746 mmHg 86%
    05:00 +19°C° 0.2 mm 3 mps 746 mmHg 85%
    06:00 +21°C° 0 mm 3 mps 746 mmHg 79%
    07:00 +24°C° 0 mm 3 mps 746 mmHg 73%
    08:00 +26°C° 0 mm 3 mps 747 mmHg 66%
    09:00 +28°C° 0 mm 3 mps 747 mmHg 60%
    10:00 +29°C° 0 mm 4 mps 746 mmHg 53%
    11:00 +32°C° 0 mm 4 mps 746 mmHg 46%
    12:00 +33°C° 0 mm 5 mps 746 mmHg 44%
    13:00 +33°C° 0 mm 5 mps 746 mmHg 42%
    14:00 +34°C° 0 mm 5 mps 745 mmHg 39%
    15:00 +34°C° 0 mm 5 mps 745 mmHg 41%
    16:00 +33°C° 0 mm 5 mps 744 mmHg 43%
    17:00 +33°C° 0 mm 5 mps 744 mmHg 45%
    18:00 +29°C° 0 mm 4 mps 744 mmHg 53%
    19:00 +27°C° 0 mm 4 mps 744 mmHg 60%
    20:00 +25°C° 0 mm 4 mps 743 mmHg 67%
    21:00 +23°C° 0.1 mm 4 mps 743 mmHg 67%
    22:00 +23°C° 0.1 mm 4 mps 743 mmHg 67%
    23:00 +23°C° 0.1 mm 4 mps 743 mmHg 67%

    Day after tomorrow, 24 June, Saturday

    Time Temperature Precipitation Wind Pressure Humidity
    00:00 +22°C° 0.5 mm 4 mps 743 mmHg 67%
    01:00 +22°C° 0.5 mm 4 mps 743 mmHg 68%
    02:00 +22°C° 0.5 mm 4 mps 743 mmHg 68%
    03:00 +21°C° 0.2 mm 4 mps 743 mmHg 70%
    04:00 +21°C° 0.2 mm 4 mps 743 mmHg 72%
    05:00 +20°C° 0.2 mm 4 mps 743 mmHg 75%
    06:00 +22°C° 0 mm 4 mps 743 mmHg 70%
    07:00 +25°C° 0 mm 5 mps 744 mmHg 65%
    08:00 +27°C° 0 mm 5 mps 744 mmHg 60%
    09:00 +28°C° 0 mm 4 mps 744 mmHg 56%
    10:00 +29°C° 0 mm 4 mps 745 mmHg 52%
    11:00 +30°C° 0 mm 3 mps 745 mmHg 48%
    12:00 +30°C° 0 mm 3 mps 745 mmHg 46%
    13:00 +32°C° 0 mm 4 mps 745 mmHg 44%
    14:00 +33°C° 0 mm 4 mps 744 mmHg 43%
    15:00 +32°C° 0 mm 4 mps 744 mmHg 45%
    16:00 +30°C° 0 mm 3 mps 744 mmHg 47%
    17:00 +30°C° 0 mm 3 mps 744 mmHg 49%
    18:00 +27°C° 0 mm 3 mps 744 mmHg 58%
    19:00 +25°C° 0 mm 3 mps 744 mmHg 66%
    20:00 +22°C° 0 mm 3 mps 744 mmHg 75%
    21:00 +21°C° 0 mm 3 mps 745 mmHg 77%
    22:00 +20°C° 0 mm 3 mps 745 mmHg 80%
    23:00 +20°C° 0 mm 3 mps 746 mmHg 82%

    25 June, Sunday

    Time Temperature Precipitation Wind Pressure Humidity
    00:00 +20°C° 0 mm 2 mps 746 mmHg 83%
    01:00 +19°C° 0 mm 2 mps 746 mmHg 84%
    02:00 +19°C° 0 mm 2 mps 746 mmHg 85%
    03:00 +19°C° 0 mm 2 mps 746 mmHg 85%
    04:00 +20°C° 0 mm 1 mps 746 mmHg 85%
    05:00 +20°C° 0 mm 1 mps 746 mmHg 85%
    06:00 +22°C° 0 mm 1 mps 746 mmHg 77%
    07:00 +24°C° 0 mm 1 mps 746 mmHg 68%
    08:00 +26°C° 0 mm 2 mps 747 mmHg 59%
    09:00 +27°C° 0 mm 2 mps 747 mmHg 56%
    10:00 +29°C° 0 mm 3 mps 747 mmHg 53%
    11:00 +30°C° 0 mm 4 mps 747 mmHg 50%
    12:00 +30°C° 0 mm 4 mps 746 mmHg 49%
    13:00 +30°C° 0 mm 4 mps 746 mmHg 49%
    14:00 +30°C° 0 mm 4 mps 746 mmHg 48%
    15:00 +30°C° 0 mm 4 mps 746 mmHg 50%
    16:00 +29°C° 0 mm 4 mps 745 mmHg 53%
    17:00 +28°C° 0 mm 4 mps 745 mmHg 55%
    18:00 +26°C° 0 mm 4 mps 745 mmHg 62%
    19:00 +23°C° 0 mm 4 mps 745 mmHg 69%
    20:00 +21°C° 0 mm 3 mps 745 mmHg 76%
    21:00 +21°C° 0 mm 3 mps 745 mmHg 79%
    22:00 +20°C° 0 mm 3 mps 745 mmHg 83%
    23:00 +19°C° 0 mm 3 mps 746 mmHg 86%

    26 June, Monday

    Time Temperature Precipitation Wind Pressure Humidity
    00:00 +19°C° 0 mm 3 mps 745 mmHg 87%
    01:00 +19°C° 0 mm 2 mps 745 mmHg 88%
    02:00 +18°C° 0 mm 2 mps 745 mmHg 89%
    03:00 +18°C° 0 mm 2 mps 745 mmHg 88%
    04:00 +18°C° 0 mm 2 mps 745 mmHg 87%
    05:00 +18°C° 0 mm 2 mps 745 mmHg 87%
    06:00 +21°C° 0 mm 2 mps 745 mmHg 78%
    07:00 +24°C° 0 mm 2 mps 745 mmHg 69%
    08:00 +26°C° 0 mm 2 mps 746 mmHg 60%
    09:00 +28°C° 0 mm 2 mps 746 mmHg 55%
    10:00 +29°C° 0 mm 3 mps 746 mmHg 51%
    11:00 +30°C° 0 mm 3 mps 746 mmHg 46%
    12:00 +32°C° 0 mm 4 mps 746 mmHg 46%
    13:00 +32°C° 0 mm 4 mps 745 mmHg 45%
    14:00 +32°C° 0 mm 4 mps 745 mmHg 45%
    15:00 +30°C° 0 mm 4 mps 745 mmHg 47%
    16:00 +29°C° 0 mm 4 mps 745 mmHg 50%
    17:00 +29°C° 0 mm 4 mps 745 mmHg 53%
    18:00 +26°C° 0 mm 3 mps 745 mmHg 61%
    19:00 +24°C° 0 mm 3 mps 745 mmHg 69%
    20:00 +21°C° 0 mm 2 mps 745 mmHg 77%
    21:00 +20°C° 0 mm 2 mps 745 mmHg 79%
    22:00 +19°C° 0 mm 2 mps 745 mmHg 81%
    23:00 +18°C° 0 mm 2 mps 746 mmHg 83%

    27 June, Tuesday

    Time Temperature Precipitation Wind Pressure Humidity
    00:00 +18°C° 0 mm 1 mps 745 mmHg 84%
    01:00 +18°C° 0 mm 1 mps 745 mmHg 85%
    02:00 +16°C° 0 mm 1 mps 745 mmHg 86%
    03:00 +16°C° 0 mm 1 mps 745 mmHg 86%
    04:00 +16°C° 0 mm 1 mps 745 mmHg 86%
    05:00 +16°C° 0 mm 1 mps 745 mmHg 87%
    06:00 +19°C° 0 mm 2 mps 746 mmHg 78%
    07:00 +21°C° 0 mm 2 mps 746 mmHg 70%
    08:00 +25°C° 0 mm 2 mps 746 mmHg 62%
    09:00 +26°C° 0 mm 3 mps 746 mmHg 57%
    10:00 +28°C° 0 mm 3 mps 746 mmHg 52%
    11:00 +29°C° 0 mm 4 mps 747 mmHg 47%
    12:00 +29°C° 0 mm 4 mps 746 mmHg 47%
    13:00 +29°C° 0 mm 4 mps 746 mmHg 47%
    14:00 +30°C° 0 mm 4 mps 746 mmHg 46%
    15:00 +29°C° 0 mm 4 mps 746 mmHg 49%
    16:00 +28°C° 0 mm 4 mps 745 mmHg 52%
    17:00 +28°C° 0 mm 4 mps 745 mmHg 54%
    18:00 +25°C° 0 mm 4 mps 745 mmHg 65%
    19:00 +22°C° 0 mm 3 mps 745 mmHg 75%
    20:00 +20°C° 0 mm 2 mps 745 mmHg 85%
    21:00 +19°C° 0 mm 2 mps 745 mmHg 87%
    22:00 +18°C° 0 mm 2 mps 745 mmHg 89%
    23:00 +18°C° 0 mm 1 mps 745 mmHg 91%
    Show more